Tracking 31027 objects as of 19-Jul-2025
HD Live streaming from Space Station
objects crossing your sky now

STARLINK-30175

Track STARLINK-30175 now!
10-day predictions
STARLINK-30175 is classified as:


NORAD ID: 57311
Int'l Code: 2023-096X
Perigee: 523.1 km
Apogee: 542.2 km
Inclination: 43.0 °
Period: 95.1 minutes
Semi major axis: 6903 km
RCS: Unknown
Launch date: July 10, 2023
Source: United States (US)
Launch site: AIR FORCE EASTERN TEST RANGE (AFETR)
Your satellite tracking list
DMSP 5D-2 F13 DEB
Track 1 satellite(s)




NASA's NSSDC Master Catalog

Two Line Element Set (TLE):
1 57311U 23096X   25199.93575615  .00033149  00000-0  18182-2 0  9996
2 57311  43.0001  45.7774 0013814 251.1504 108.7845 15.13519249111642
Source of the keplerian elements: AFSPC